Tracking 19644 objects as of 25-Apr-2019
HD Live streaming from Space Station
objects crossing your sky now

THORAD AGENA D DEB

Track THORAD AGENA D DEB now!
10-day predictions


NORAD ID: 4645
Int'l Code: 1970-025AD
Perigee: 1,071.9 km
Apogee: 1,577.2 km
Inclination: 99.9 °
Period: 112.0 minutes
Semi major axis: 7695 km
RCS: 0.0946 m2 (small)
Launch date: April 8, 1970
Source: United States (US)
Launch site: AIR FORCE WESTERN TEST RANGE (AFWTR)

Note: This is SATELLITE DEBRIS
aabbcc
Your satellite tracking list
Your tracking list is empty




NASA's NSSDC Master Catalog

Two Line Element Set (TLE):
1  4645U 70025AD  19115.85102659 -.00000056  00000-0 -52963-4 0  9998
2  4645  99.9241  57.0798 0328300 241.9054 183.4695 12.86015238300456
Source of the keplerian elements: AFSPC